APG501 RPLL-WBKK

Flight info

Callsign APG501
Flight time 1h 39m
Altitude 36000
Route BUCAL2R BUCAL M646 MIKEL DCT ENBAX ENBAX1E
Aircraft A320/M-SDFGHIRWY/LB1

Departure

Time 2026-04-25 05:45
Airport Ninoy Aquino International Airport (RPLL)

Arrival

Time 2026-04-25 07:24
Airport Kota Kinabalu International Airport (WBKK)
Time Latitude Longitude Altitude Speed Heading
2026-04-25 05:23 14.50590 121.00643 69 ft 0 kts 200°
2026-04-25 05:36 14.50595 121.00644 69 ft 2 kts 200°
2026-04-25 05:36 14.50611 121.00650 64 ft 2 kts 200°
2026-04-25 05:36 14.50627 121.00657 59 ft 2 kts 200°
2026-04-25 05:36 14.50642 121.00662 62 ft 2 kts 190°
2026-04-25 05:37 14.50659 121.00660 59 ft 2 kts 124°
2026-04-25 05:37 14.50661 121.00658 61 ft 0 kts 117°
2026-04-25 05:39 14.50660 121.00658 69 ft 1 kts 117°
2026-04-25 05:39 14.50648 121.00691 64 ft 9 kts 108°
2026-04-25 05:39 14.50613 121.00763 67 ft 13 kts 141°
2026-04-25 05:39 14.50532 121.00812 64 ft 14 kts 150°
2026-04-25 05:40 14.50433 121.00817 68 ft 16 kts 195°
2026-04-25 05:40 14.50355 121.00755 62 ft 13 kts 240°
2026-04-25 05:40 14.50314 121.00682 66 ft 11 kts 240°
2026-04-25 05:40 14.50279 121.00619 67 ft 9 kts 240°
2026-04-25 05:41 14.50246 121.00559 62 ft 12 kts 240°
2026-04-25 05:41 14.50193 121.00466 62 ft 18 kts 240°
2026-04-25 05:41 14.50126 121.00346 65 ft 20 kts 239°
2026-04-25 05:41 14.50055 121.00218 64 ft 21 kts 240°
2026-04-25 05:42 14.49979 121.00081 65 ft 21 kts 240°
2026-04-25 05:42 14.49918 120.99978 65 ft 12 kts 227°
2026-04-25 05:42 14.49847 120.99982 67 ft 12 kts 153°
2026-04-25 05:42 14.49800 121.00013 66 ft 12 kts 126°
2026-04-25 05:43 14.49825 121.00079 69 ft 8 kts 59°
2026-04-25 05:43 14.49852 121.00128 65 ft 7 kts 60°
2026-04-25 05:43 14.49863 121.00146 62 ft 0 kts 59°
2026-04-25 05:44 14.49863 121.00147 62 ft 2 kts 59°
2026-04-25 05:44 14.49925 121.00259 63 ft 46 kts 60°
2026-04-25 05:45 14.50201 121.00755 65 ft 112 kts 60°
2026-04-25 05:45 14.50681 121.01615 66 ft 163 kts 59°
2026-04-25 05:45 14.51294 121.02679 517 ft 173 kts 64°
2026-04-25 05:45 14.51910 121.03769 1157 ft 179 kts 60°
2026-04-25 05:46 14.52567 121.04956 1526 ft 202 kts 63°
2026-04-25 05:46 14.53294 121.06292 1815 ft 224 kts 63°
2026-04-25 05:46 14.54099 121.07766 2105 ft 248 kts 62°
2026-04-25 05:46 14.54984 121.09383 2637 ft 264 kts 62°
2026-04-25 05:47 14.55886 121.11023 3452 ft 267 kts 62°
2026-04-25 05:47 14.56446 121.12827 4363 ft 264 kts 89°
2026-04-25 05:47 14.55978 121.14648 5168 ft 269 kts 122°
2026-04-25 05:47 14.54740 121.16119 5979 ft 274 kts 133°
2026-04-25 05:48 14.53387 121.17521 6775 ft 277 kts 134°
2026-04-25 05:48 14.52017 121.18907 7496 ft 281 kts 135°
2026-04-25 05:48 14.50592 121.20343 8223 ft 287 kts 135°
2026-04-25 05:48 14.49150 121.21804 8940 ft 293 kts 136°
2026-04-25 05:49 14.47490 121.23004 9643 ft 298 kts 158°
2026-04-25 05:49 14.45450 121.23460 10176 ft 306 kts 182°
2026-04-25 05:49 14.43329 121.22995 10451 ft 323 kts 206°
2026-04-25 05:49 14.41509 121.21548 10700 ft 339 kts 229°
2026-04-25 05:50 14.39923 121.19702 11269 ft 345 kts 229°
2026-04-25 05:50 14.38319 121.17845 11897 ft 349 kts 228°
2026-04-25 05:50 14.36705 121.15986 12557 ft 352 kts 228°
2026-04-25 05:50 14.35057 121.14099 13191 ft 356 kts 228°
2026-04-25 05:51 14.33397 121.12204 13867 ft 356 kts 228°
2026-04-25 05:51 14.31719 121.10290 14454 ft 358 kts 228°
2026-04-25 05:51 14.30061 121.08395 15001 ft 361 kts 228°
2026-04-25 05:51 14.28322 121.06484 15515 ft 365 kts 223°
2026-04-25 05:52 14.26297 121.04863 15997 ft 370 kts 216°
2026-04-25 05:52 14.24161 121.03362 16517 ft 373 kts 215°
2026-04-25 05:52 14.22034 121.01868 16999 ft 376 kts 216°
2026-04-25 05:52 14.19862 121.00340 17561 ft 378 kts 216°
2026-04-25 05:53 14.17681 120.98802 18048 ft 381 kts 216°
2026-04-25 05:53 14.15477 120.97248 18480 ft 385 kts 215°
2026-04-25 05:53 14.13253 120.95685 18886 ft 388 kts 215°
2026-04-25 05:53 14.11032 120.94123 19351 ft 390 kts 215°
2026-04-25 05:54 14.08761 120.92526 19803 ft 393 kts 215°
2026-04-25 05:54 14.06510 120.90943 20264 ft 395 kts 215°
2026-04-25 05:54 14.01947 120.87725 21201 ft 399 kts 215°
2026-04-25 05:55 13.99642 120.86100 21664 ft 401 kts 215°
2026-04-25 05:55 13.97326 120.84473 22134 ft 403 kts 215°
2026-04-25 05:55 13.95027 120.82857 22584 ft 405 kts 215°
2026-04-25 05:55 13.92670 120.81200 23039 ft 407 kts 215°
2026-04-25 05:56 13.90320 120.79544 23469 ft 409 kts 215°
2026-04-25 05:56 13.87994 120.77905 23803 ft 411 kts 215°
2026-04-25 05:56 13.85618 120.76231 24144 ft 413 kts 215°
2026-04-25 05:56 13.83230 120.74550 24472 ft 416 kts 215°
2026-04-25 05:57 13.80831 120.72866 24782 ft 418 kts 215°
2026-04-25 05:57 13.78416 120.71173 25098 ft 421 kts 215°
2026-04-25 05:57 13.76017 120.69491 25406 ft 423 kts 215°
2026-04-25 05:57 13.73568 120.67770 25719 ft 425 kts 215°
2026-04-25 05:58 13.71114 120.66040 26022 ft 427 kts 216°
2026-04-25 05:58 13.68655 120.64309 26323 ft 429 kts 216°
2026-04-25 05:58 13.66185 120.62574 26625 ft 431 kts 216°
2026-04-25 05:58 13.63735 120.60852 26918 ft 433 kts 216°
2026-04-25 05:59 13.61240 120.59102 27206 ft 435 kts 215°
2026-04-25 05:59 13.58593 120.57546 27491 ft 438 kts 207°
2026-04-25 05:59 13.55818 120.56216 27771 ft 440 kts 207°
2026-04-25 05:59 13.53028 120.54876 28031 ft 443 kts 207°
2026-04-25 06:00 13.50251 120.53537 28292 ft 445 kts 207°
2026-04-25 06:00 13.47432 120.52179 28558 ft 447 kts 207°
2026-04-25 06:00 13.44610 120.50820 28834 ft 449 kts 207°
2026-04-25 06:00 13.41774 120.49453 29106 ft 451 kts 207°
2026-04-25 06:01 13.38923 120.48077 29363 ft 452 kts 207°
2026-04-25 06:01 13.36068 120.46702 29611 ft 454 kts 207°
2026-04-25 06:01 13.33224 120.45334 29843 ft 456 kts 207°
2026-04-25 06:01 13.30355 120.43957 30050 ft 458 kts 207°
2026-04-25 06:02 13.27459 120.42569 30257 ft 459 kts 207°
2026-04-25 06:02 13.24564 120.41184 30467 ft 460 kts 207°
2026-04-25 06:02 13.21658 120.39791 30673 ft 460 kts 207°
2026-04-25 06:02 13.18754 120.38396 30887 ft 460 kts 207°
2026-04-25 06:03 13.15852 120.37003 31179 ft 458 kts 207°
2026-04-25 06:03 13.12963 120.35617 31477 ft 456 kts 207°
2026-04-25 06:03 13.10090 120.34240 31774 ft 454 kts 207°
2026-04-25 06:03 13.07256 120.32883 32070 ft 453 kts 207°
2026-04-25 06:04 13.04390 120.31512 32374 ft 451 kts 207°
2026-04-25 06:04 13.01562 120.30156 32677 ft 449 kts 206°
2026-04-25 06:04 12.98764 120.28811 32979 ft 447 kts 206°
2026-04-25 06:04 12.95920 120.27444 33273 ft 446 kts 206°
2026-04-25 06:05 12.93137 120.26110 33558 ft 444 kts 206°
2026-04-25 06:05 12.90351 120.24773 33855 ft 443 kts 206°
2026-04-25 06:05 12.87547 120.23428 34129 ft 442 kts 206°
2026-04-25 06:05 12.84769 120.22098 34355 ft 441 kts 206°
2026-04-25 06:06 12.82004 120.20778 34575 ft 441 kts 206°
2026-04-25 06:06 12.79198 120.19439 34782 ft 441 kts 206°
2026-04-25 06:06 12.76435 120.18119 34978 ft 441 kts 206°
2026-04-25 06:06 12.73636 120.16784 35182 ft 441 kts 206°
2026-04-25 06:07 12.70871 120.15465 35374 ft 441 kts 206°
2026-04-25 06:07 12.68066 120.14124 35571 ft 441 kts 206°
2026-04-25 06:07 12.65300 120.12800 35762 ft 440 kts 206°
2026-04-25 06:07 12.62538 120.11476 35864 ft 440 kts 206°
2026-04-25 06:08 12.56971 120.08814 35887 ft 440 kts 206°
2026-04-25 06:08 12.51446 120.06178 35887 ft 440 kts 206°
2026-04-25 06:09 12.45894 120.03530 35890 ft 439 kts 206°
2026-04-25 06:09 12.40339 120.00880 35890 ft 439 kts 206°
2026-04-25 06:10 12.34815 119.98248 35889 ft 439 kts 206°
2026-04-25 06:10 12.29267 119.95605 35897 ft 439 kts 206°
2026-04-25 06:11 12.23738 119.92970 35901 ft 439 kts 206°
2026-04-25 06:11 12.18200 119.90332 35902 ft 439 kts 206°
2026-04-25 06:12 12.12657 119.87697 35901 ft 439 kts 206°
2026-04-25 06:12 12.07140 119.85074 35896 ft 439 kts 205°
2026-04-25 06:13 12.01582 119.82434 35903 ft 438 kts 205°
2026-04-25 06:14 11.93294 119.78497 35891 ft 438 kts 205°
2026-04-25 06:14 11.87798 119.75892 35890 ft 438 kts 205°
2026-04-25 06:15 11.82261 119.73270 35888 ft 438 kts 205°
2026-04-25 06:15 11.76753 119.70648 35892 ft 438 kts 205°
2026-04-25 06:16 11.71192 119.68001 35897 ft 439 kts 205°
2026-04-25 06:16 11.65673 119.65407 35899 ft 439 kts 205°
2026-04-25 06:17 11.60096 119.62830 35901 ft 439 kts 205°
2026-04-25 06:17 11.54552 119.60280 35901 ft 438 kts 205°
2026-04-25 06:18 11.48986 119.57699 35898 ft 438 kts 205°
2026-04-25 06:18 11.43464 119.55137 35890 ft 438 kts 205°
2026-04-25 06:19 11.37902 119.52556 35883 ft 438 kts 205°
2026-04-25 06:19 11.32365 119.49985 35886 ft 439 kts 205°
2026-04-25 06:20 11.26792 119.47407 35884 ft 439 kts 205°
2026-04-25 06:20 11.21208 119.44823 35887 ft 439 kts 205°
2026-04-25 06:21 11.15665 119.42263 35880 ft 440 kts 205°
2026-04-25 06:21 11.10083 119.39672 35885 ft 439 kts 205°
2026-04-25 06:22 11.04539 119.37102 35886 ft 440 kts 205°
2026-04-25 06:22 10.98949 119.34526 35888 ft 439 kts 205°
2026-04-25 06:23 10.93413 119.31971 35887 ft 440 kts 205°
2026-04-25 06:23 10.87831 119.29395 35887 ft 439 kts 205°
2026-04-25 06:24 10.82273 119.26832 35873 ft 439 kts 204°
2026-04-25 06:24 10.76707 119.24259 35872 ft 440 kts 205°
2026-04-25 06:25 10.71147 119.21698 35871 ft 440 kts 205°
2026-04-25 06:25 10.65548 119.19119 35873 ft 440 kts 205°
2026-04-25 06:26 10.59995 119.16550 35871 ft 440 kts 205°
2026-04-25 06:26 10.54402 119.13972 35875 ft 440 kts 204°
2026-04-25 06:27 10.49750 119.11834 35882 ft 440 kts 204°
2026-04-25 06:27 10.43269 119.08857 35887 ft 440 kts 204°
2026-04-25 06:28 10.38602 119.06707 35891 ft 440 kts 204°
2026-04-25 06:28 10.33028 119.04143 35893 ft 439 kts 204°
2026-04-25 06:29 10.27459 119.01583 35896 ft 439 kts 204°
2026-04-25 06:29 10.21927 118.99043 35904 ft 439 kts 204°
2026-04-25 06:30 10.16356 118.96481 35903 ft 439 kts 204°
2026-04-25 06:30 10.10782 118.93919 35900 ft 440 kts 204°
2026-04-25 06:31 10.05196 118.91360 35899 ft 441 kts 204°
2026-04-25 06:31 9.99599 118.88793 35897 ft 442 kts 204°
2026-04-25 06:32 9.93997 118.86218 35900 ft 442 kts 204°
2026-04-25 06:32 9.88381 118.83644 35903 ft 443 kts 204°
2026-04-25 06:33 9.82765 118.81074 35897 ft 443 kts 204°
2026-04-25 06:33 9.77147 118.78503 35901 ft 443 kts 204°
2026-04-25 06:34 9.71784 118.75463 35904 ft 443 kts 216°
2026-04-25 06:34 9.66786 118.71802 35904 ft 443 kts 215°
2026-04-25 06:35 9.61780 118.68157 35901 ft 443 kts 215°
2026-04-25 06:35 9.56770 118.64515 35899 ft 443 kts 215°
2026-04-25 06:36 9.51764 118.60878 35900 ft 442 kts 215°
2026-04-25 06:36 9.46764 118.57245 35891 ft 442 kts 215°
2026-04-25 06:37 9.41771 118.53615 35882 ft 442 kts 215°
2026-04-25 06:37 9.36782 118.49988 35880 ft 441 kts 215°
2026-04-25 06:38 9.31799 118.46366 35875 ft 441 kts 215°
2026-04-25 06:38 9.26823 118.42756 35874 ft 441 kts 214°
2026-04-25 06:39 9.21817 118.39136 35866 ft 442 kts 215°
2026-04-25 06:39 9.16802 118.35499 35866 ft 442 kts 215°
2026-04-25 06:40 9.11816 118.31879 35857 ft 443 kts 215°
2026-04-25 06:40 9.06894 118.28156 35853 ft 444 kts 222°
2026-04-25 06:41 9.02384 118.23888 35852 ft 444 kts 222°
2026-04-25 06:41 8.97847 118.19593 35851 ft 445 kts 222°
2026-04-25 06:42 8.93315 118.15313 35852 ft 446 kts 222°
2026-04-25 06:42 8.88765 118.11018 35854 ft 447 kts 222°
2026-04-25 06:43 8.84251 118.06752 35862 ft 447 kts 222°
2026-04-25 06:43 8.79707 118.02461 35868 ft 446 kts 222°
2026-04-25 06:44 8.75163 117.98175 35875 ft 445 kts 222°
2026-04-25 06:44 8.70626 117.93903 35875 ft 445 kts 221°
2026-04-25 06:45 8.66117 117.89648 35865 ft 445 kts 221°
2026-04-25 06:45 8.61600 117.85391 35857 ft 446 kts 221°
2026-04-25 06:46 8.57056 117.81109 35857 ft 446 kts 222°
2026-04-25 06:46 8.52509 117.76831 35859 ft 446 kts 222°
2026-04-25 06:47 8.47990 117.72584 35855 ft 446 kts 222°
2026-04-25 06:47 8.43434 117.68294 35855 ft 446 kts 223°
2026-04-25 06:48 8.38893 117.64011 35849 ft 447 kts 222°
2026-04-25 06:48 8.34345 117.59734 35843 ft 447 kts 222°
2026-04-25 06:49 8.29781 117.55452 35842 ft 448 kts 222°
2026-04-25 06:49 8.25219 117.51174 35842 ft 448 kts 222°
2026-04-25 06:50 8.20671 117.46898 35847 ft 448 kts 223°
2026-04-25 06:50 8.16099 117.42594 35847 ft 448 kts 222°
2026-04-25 06:51 8.11536 117.38307 35852 ft 448 kts 221°
2026-04-25 06:51 8.06988 117.34037 35848 ft 448 kts 221°
2026-04-25 06:52 8.02415 117.29746 35841 ft 449 kts 222°
2026-04-25 06:52 7.97830 117.25445 35840 ft 450 kts 221°
2026-04-25 06:53 7.93231 117.21143 35840 ft 450 kts 222°
2026-04-25 06:53 7.88640 117.16835 35842 ft 450 kts 221°
2026-04-25 06:54 7.84064 117.12541 35846 ft 450 kts 222°
2026-04-25 06:54 7.79469 117.08246 35847 ft 450 kts 222°
2026-04-25 06:55 7.74873 117.03944 35845 ft 450 kts 221°
2026-04-25 06:55 7.70277 116.99641 35841 ft 451 kts 222°
2026-04-25 06:56 7.65671 116.95329 35836 ft 451 kts 220°
2026-04-25 06:56 7.61085 116.91044 35837 ft 451 kts 222°
2026-04-25 06:57 7.56483 116.86732 35765 ft 451 kts 222°
2026-04-25 06:57 7.54167 116.84559 34746 ft 459 kts 222°
2026-04-25 06:57 7.51787 116.82330 33535 ft 471 kts 222°
2026-04-25 06:57 7.49376 116.80073 32622 ft 472 kts 222°
2026-04-25 06:58 7.47014 116.77865 32087 ft 466 kts 222°
2026-04-25 06:58 7.44632 116.75639 31444 ft 462 kts 222°
2026-04-25 06:58 7.42278 116.73442 30824 ft 459 kts 222°
2026-04-25 06:58 7.39955 116.71280 30210 ft 456 kts 223°
2026-04-25 06:59 7.37628 116.69115 29556 ft 454 kts 222°
2026-04-25 06:59 7.35316 116.66954 28943 ft 450 kts 222°
2026-04-25 06:59 7.33035 116.64811 28343 ft 446 kts 222°
2026-04-25 06:59 7.30770 116.62692 27763 ft 442 kts 222°
2026-04-25 07:00 7.28520 116.60595 27196 ft 438 kts 221°
2026-04-25 07:00 7.26316 116.58544 26648 ft 435 kts 222°
2026-04-25 07:00 7.24093 116.56475 26101 ft 432 kts 222°
2026-04-25 07:00 7.21888 116.54417 25564 ft 430 kts 222°
2026-04-25 07:01 7.19705 116.52376 25040 ft 427 kts 222°
2026-04-25 07:01 7.17555 116.50367 24527 ft 425 kts 222°
2026-04-25 07:01 7.15393 116.48344 24020 ft 422 kts 222°
2026-04-25 07:01 7.13240 116.46332 23523 ft 420 kts 222°
2026-04-25 07:02 7.11085 116.44321 22951 ft 419 kts 222°
2026-04-25 07:02 7.08961 116.42341 22374 ft 417 kts 222°
2026-04-25 07:02 7.06847 116.40369 22076 ft 410 kts 222°
2026-04-25 07:02 7.04746 116.38409 21826 ft 419 kts 222°
2026-04-25 07:03 7.02569 116.36384 21576 ft 441 kts 222°
2026-04-25 07:03 7.00269 116.34248 21329 ft 455 kts 221°
2026-04-25 07:03 6.97929 116.32075 21084 ft 458 kts 222°
2026-04-25 07:03 6.95589 116.29897 20846 ft 461 kts 222°
2026-04-25 07:04 6.93216 116.27685 20605 ft 466 kts 222°
2026-04-25 07:04 6.90820 116.25449 20359 ft 466 kts 222°
2026-04-25 07:04 6.88468 116.23255 20133 ft 464 kts 222°
2026-04-25 07:04 6.86085 116.21033 19898 ft 463 kts 221°
2026-04-25 07:05 6.83719 116.18829 19673 ft 463 kts 222°
2026-04-25 07:05 6.81357 116.16630 19435 ft 461 kts 221°
2026-04-25 07:05 6.79035 116.14467 19210 ft 460 kts 221°
2026-04-25 07:05 6.76648 116.12298 18985 ft 459 kts 217°
2026-04-25 07:06 6.73984 116.10548 18755 ft 454 kts 206°
2026-04-25 07:06 6.71063 116.09388 18532 ft 449 kts 192°
2026-04-25 07:06 6.68048 116.08846 18310 ft 444 kts 182°
2026-04-25 07:06 6.64963 116.08634 18089 ft 443 kts 181°
2026-04-25 07:07 6.61897 116.08423 17837 ft 441 kts 181°
2026-04-25 07:07 6.58821 116.08209 17580 ft 439 kts 182°
2026-04-25 07:07 6.55774 116.07996 17326 ft 438 kts 181°
2026-04-25 07:07 6.52732 116.07779 17072 ft 436 kts 181°
2026-04-25 07:08 6.49726 116.07565 16828 ft 435 kts 181°
2026-04-25 07:08 6.46714 116.07355 16595 ft 434 kts 183°
2026-04-25 07:08 6.43693 116.07145 16337 ft 432 kts 181°
2026-04-25 07:08 6.40695 116.06940 16095 ft 431 kts 182°
2026-04-25 07:09 6.37708 116.06735 15851 ft 429 kts 182°
2026-04-25 07:09 6.34767 116.06532 15618 ft 428 kts 181°
2026-04-25 07:09 6.31787 116.06323 15377 ft 427 kts 181°
2026-04-25 07:09 6.28824 116.06113 15151 ft 426 kts 182°
2026-04-25 07:10 6.25858 116.05900 14911 ft 425 kts 182°
2026-04-25 07:10 6.22959 116.05313 14771 ft 425 kts 195°
2026-04-25 07:10 6.20259 116.04103 14561 ft 429 kts 207°
2026-04-25 07:10 6.17626 116.02696 14330 ft 429 kts 206°
2026-04-25 07:11 6.14993 116.01280 14102 ft 427 kts 207°
2026-04-25 07:11 6.13264 116.00350 13951 ft 424 kts 207°
2026-04-25 07:11 6.10664 115.98954 13726 ft 422 kts 207°
2026-04-25 07:11 6.07227 115.97109 13403 ft 420 kts 207°
2026-04-25 07:12 6.05486 115.96174 13230 ft 416 kts 207°
2026-04-25 07:12 6.00562 115.93535 12876 ft 385 kts 207°
2026-04-25 07:12 5.98253 115.92299 12462 ft 378 kts 207°
2026-04-25 07:13 5.95934 115.91060 11923 ft 375 kts 206°
2026-04-25 07:13 5.93629 115.89830 11326 ft 375 kts 206°
2026-04-25 07:13 5.91351 115.88614 11015 ft 365 kts 206°
2026-04-25 07:13 5.89142 115.87430 10780 ft 354 kts 206°
2026-04-25 07:14 5.86995 115.86279 10540 ft 344 kts 206°
2026-04-25 07:14 5.84913 115.85162 10309 ft 335 kts 206°
2026-04-25 07:14 5.82879 115.84073 10095 ft 326 kts 206°
2026-04-25 07:14 5.80932 115.83031 10007 ft 313 kts 205°
2026-04-25 07:15 5.79025 115.82011 9730 ft 308 kts 206°
2026-04-25 07:15 5.77145 115.80994 9431 ft 304 kts 206°
2026-04-25 07:15 5.75318 115.80007 9139 ft 298 kts 204°
2026-04-25 07:15 5.73370 115.79463 8844 ft 287 kts 178°
2026-04-25 07:16 5.71457 115.79830 8533 ft 276 kts 152°
2026-04-25 07:16 5.69976 115.80992 8193 ft 268 kts 128°
2026-04-25 07:16 5.68916 115.82519 7843 ft 265 kts 120°
2026-04-25 07:16 5.67996 115.84095 7438 ft 265 kts 119°
2026-04-25 07:17 5.67075 115.85700 7015 ft 265 kts 119°
2026-04-25 07:17 5.66159 115.87317 6594 ft 266 kts 119°
2026-04-25 07:17 5.65262 115.88919 6183 ft 266 kts 119°
2026-04-25 07:17 5.64368 115.90519 5765 ft 257 kts 118°
2026-04-25 07:18 5.63852 115.92171 5394 ft 244 kts 92°
2026-04-25 07:18 5.64292 115.93759 5095 ft 237 kts 55°
2026-04-25 07:18 5.65613 115.94677 4859 ft 238 kts 15°
2026-04-25 07:18 5.67264 115.94661 4624 ft 237 kts 354°
2026-04-25 07:19 5.68880 115.94707 4372 ft 229 kts 19°
2026-04-25 07:19 5.70335 115.95232 4256 ft 217 kts 25°
2026-04-25 07:19 5.71725 115.95827 4024 ft 215 kts 24°
2026-04-25 07:19 5.73084 115.96407 3771 ft 209 kts 25°
2026-04-25 07:20 5.74409 115.96967 3493 ft 203 kts 24°
2026-04-25 07:20 5.75684 115.97509 3221 ft 199 kts 23°
2026-04-25 07:20 5.76942 115.98046 2997 ft 192 kts 22°
2026-04-25 07:20 5.78165 115.98561 2757 ft 189 kts 22°
2026-04-25 07:21 5.79370 115.99066 2542 ft 187 kts 21°
2026-04-25 07:21 5.80558 115.99573 2316 ft 184 kts 21°
2026-04-25 07:21 5.81729 116.00066 2066 ft 180 kts 20°
2026-04-25 07:21 5.82898 116.00560 1820 ft 182 kts 20°
2026-04-25 07:22 5.84050 116.01042 1579 ft 174 kts 19°
2026-04-25 07:22 5.85134 116.01498 1341 ft 163 kts 18°
2026-04-25 07:22 5.86148 116.01927 1149 ft 154 kts 21°
2026-04-25 07:22 5.87125 116.02337 969 ft 151 kts 19°
2026-04-25 07:23 5.88091 116.02739 767 ft 153 kts 21°
2026-04-25 07:23 5.89071 116.03153 601 ft 154 kts 19°
2026-04-25 07:23 5.90041 116.03567 395 ft 149 kts 20°
2026-04-25 07:23 5.90997 116.03969 236 ft 149 kts 20°
2026-04-25 07:24 5.91961 116.04373 64 ft 149 kts 20°
2026-04-25 07:24 5.92844 116.04743 29 ft 115 kts 22°
2026-04-25 07:24 5.93419 116.04988 29 ft 65 kts 23°
2026-04-25 07:24 5.93675 116.05098 29 ft 17 kts 27°
2026-04-25 07:25 5.93700 116.05190 29 ft 14 kts 102°
2026-04-25 07:25 5.93638 116.05253 29 ft 12 kts 160°
2026-04-25 07:25 5.93560 116.05236 29 ft 11 kts 202°
2026-04-25 07:25 5.93487 116.05205 29 ft 14 kts 203°
2026-04-25 07:26 5.93379 116.05159 29 ft 20 kts 202°
2026-04-25 07:26 5.93242 116.05102 29 ft 22 kts 202°
2026-04-25 07:26 5.93099 116.05041 29 ft 23 kts 202°
2026-04-25 07:26 5.92945 116.04976 29 ft 24 kts 202°
2026-04-25 07:27 5.92786 116.04909 29 ft 26 kts 203°
2026-04-25 07:27 5.92612 116.04834 29 ft 28 kts 203°
2026-04-25 07:27 5.92465 116.04772 29 ft 11 kts 200°
2026-04-25 07:27 5.92407 116.04801 29 ft 10 kts 117°
2026-04-25 07:28 5.92365 116.04844 29 ft 9 kts 158°
2026-04-25 07:28 5.92290 116.04873 29 ft 12 kts 158°
2026-04-25 07:28 5.92213 116.04905 29 ft 12 kts 158°
2026-04-25 07:28 5.92161 116.04942 29 ft 7 kts 80°
2026-04-25 07:29 5.92182 116.04988 29 ft 7 kts 68°
2026-04-25 07:29 5.92192 116.05013 29 ft 2 kts 68°
2026-04-25 07:29 5.92193 116.05015 29 ft 0 kts 68°